| time (UTC) | temp C | wind direction | speed KPH | gust KPH | rain 1hr cm | rain 24hr cm | rain mn cm | humidity % | barometer mb |
| 20260507203326 | 10 | 166 | 3.2 | 6.4 | 0.00 | 0.00 | 0.00 | 79 | 1001.7 |
| 20260507201825 | 10 | 169 | 3.2 | 4.8 | 0.00 | 0.00 | 0.00 | 81 | 1001.4 |
| 20260507200325 | 10 | 165 | 1.6 | 1.6 | 0.00 | 0.00 | 0.00 | 78 | 1001.4 |
| 20260507194826 | 10 | 174 | 4.8 | 4.8 | 0.00 | 0.00 | 0.00 | 76 | 1001.4 |
| 20260507193328 | 10 | 145 | 0.0 | 0.0 | 0.00 | 0.00 | 0.00 | 72 | 1001.4 |
| 20260507191826 | 11 | 186 | 3.2 | 3.2 | 0.00 | 0.00 | 0.00 | 71 | 1001.4 |
| 20260507190328 | 11 | 162 | 0.0 | 0.0 | 0.00 | 0.00 | 0.00 | 73 | 1001.4 |
| 20260507184825 | 11 | 182 | 0.0 | 0.0 | 0.00 | 0.00 | 0.00 | 71 | 1001.0 |
| 20260507183329 | 12 | 189 | 0.0 | 1.6 | 0.00 | 0.00 | 0.00 | 67 | 1001.0 |
| 20260507181825 | 12 | 179 | 0.0 | 1.6 | 0.00 | 0.00 | 0.00 | 65 | 1000.7 |
| 20260507180326 | 12 | 199 | 0.0 | 0.0 | 0.00 | 0.00 | 0.00 | 66 | 1000.7 |
| 20260507174827 | 12 | 170 | 0.0 | 0.0 | 0.00 | 0.00 | 0.00 | 65 | 1001.0 |
| 20260507173326 | 12 | 179 | 0.0 | 0.0 | 0.00 | 0.00 | 0.00 | 65 | 1001.0 |
| 20260507171825 | 12 | 184 | 0.0 | 1.6 | 0.00 | 0.00 | 0.00 | 61 | 1001.0 |
| 20260507170328 | 13 | 145 | 1.6 | 1.6 | 0.00 | 0.00 | 0.00 | 60 | 1001.0 |
| 20260507164825 | 13 | 188 | 3.2 | 4.8 | 0.00 | 0.00 | 0.00 | 59 | 1001.0 |
| 20260507163325 | 13 | 198 | 3.2 | 3.2 | 0.00 | 0.00 | 0.00 | 58 | 1001.0 |
| 20260507161826 | 13 | 198 | 4.8 | 4.8 | 0.00 | 0.00 | 0.00 | 58 | 1001.0 |
| 20260507160328 | 13 | 136 | 0.0 | 1.6 | 0.00 | 0.00 | 0.00 | 57 | 1001.0 |
| 20260507154825 | 13 | 147 | 1.6 | 3.2 | 0.00 | 0.00 | 0.00 | 57 | 1001.0 |
| 20260507153324 | 13 | 170 | 3.2 | 3.2 | 0.00 | 0.00 | 0.00 | 58 | 1001.0 |
| 20260507151825 | 13 | 169 | 3.2 | 3.2 | 0.00 | 0.00 | 0.00 | 59 | 1001.4 |
| 20260507150324 | 13 | 147 | 1.6 | 3.2 | 0.00 | 0.00 | 0.00 | 58 | 1001.4 |
| 20260507144827 | 13 | 122 | 3.2 | 4.8 | 0.00 | 0.00 | 0.00 | 61 | 1001.4 |
| 20260507143327 | 13 | 172 | 3.2 | 9.7 | 0.00 | 0.00 | 0.00 | 60 | 1001.7 |
| 20260507141825 | 12 | 194 | 6.4 | 11.3 | 0.00 | 0.00 | 0.00 | 61 | 1002.0 |
| 20260507140325 | 12 | 191 | 6.4 | 6.4 | 0.00 | 0.00 | 0.00 | 63 | 1002.0 |
| 20260507134825 | 11 | 139 | 1.6 | 3.2 | 0.00 | 0.00 | 0.00 | 64 | 1002.0 |
| 20260507133325 | 11 | 137 | 3.2 | 3.2 | 0.00 | 0.00 | 0.00 | 65 | 1002.0 |
| 20260507131825 | 11 | 185 | 4.8 | 6.4 | 0.00 | 0.00 | 0.00 | 65 | 1002.0 |
| 20260507130327 | 10 | 163 | 3.2 | 4.8 | 0.00 | 0.00 | 0.00 | 65 | 1002.4 |
| 20260507124825 | 10 | 170 | 0.0 | 0.0 | 0.00 | 0.00 | 0.00 | 69 | 1002.4 |
| 20260507123326 | 10 | 122 | 1.6 | 3.2 | 0.00 | 0.00 | 0.00 | 72 | 1002.4 |
| 20260507121825 | 10 | 164 | 8.0 | 9.7 | 0.00 | 0.00 | 0.00 | 69 | 1002.0 |
| 20260507120325 | 10 | 110 | 11.3 | 14.5 | 0.00 | 0.00 | 0.00 | 69 | 1002.0 |
| 20260507114825 | 10 | 122 | 3.2 | 4.8 | 0.00 | 0.00 | 0.00 | 71 | 1002.4 |
| 20260507113325 | 10 | 124 | 3.2 | 3.2 | 0.00 | 0.00 | 0.00 | 73 | 1002.4 |
| 20260507111826 | 10 | 90 | 3.2 | 6.4 | 0.00 | 0.00 | 0.00 | 72 | 1002.4 |
| 20260507110325 | 10 | 169 | 6.4 | 9.7 | 0.00 | 0.00 | 0.00 | 71 | 1002.4 |
| 20260507104826 | 10 | 123 | 4.8 | 11.3 | 0.00 | 0.00 | 0.00 | 71 | 1002.4 |
| 20260507103325 | 10 | 122 | 0.0 | 0.0 | 0.00 | 0.00 | 0.00 | 72 | 1002.4 |
| 20260507101825 | 10 | 127 | 1.6 | 3.2 | 0.00 | 0.00 | 0.00 | 72 | 1002.7 |
| 20260507100325 | 10 | 145 | 3.2 | 3.2 | 0.00 | 0.00 | 0.00 | 74 | 1002.7 |
| 20260507094826 | 10 | 143 | 3.2 | 3.2 | 0.00 | 0.00 | 0.00 | 73 | 1002.7 |
| 20260507093325 | 10 | 80 | 3.2 | 6.4 | 0.00 | 0.00 | 0.00 | 73 | 1002.4 |
| 20260507091825 | 9 | 85 | 4.8 | 4.8 | 0.00 | 0.00 | 0.00 | 75 | 1002.4 |
| 20260507090326 | 9 | 99 | 3.2 | 4.8 | 0.00 | 0.00 | 0.00 | 74 | 1002.4 |
| 20260507084825 | 8 | 108 | 3.2 | 3.2 | 0.00 | 0.00 | 0.00 | 75 | 1002.4 |
| 20260507083326 | 8 | 108 | 3.2 | 11.3 | 0.00 | 0.00 | 0.00 | 74 | 1002.4 |
| 20260507081824 | 8 | 109 | 4.8 | 6.4 | 0.00 | 0.00 | 0.00 | 75 | 1002.4 |
| 20260507080325 | 7 | 121 | 4.8 | 6.4 | 0.00 | 0.00 | 0.00 | 76 | 1002.7 |
| 20260507074826 | 7 | 125 | 0.0 | 0.0 | 0.00 | 0.00 | 0.00 | 77 | 1002.4 |
| 20260507073325 | 7 | 109 | 1.6 | 3.2 | 0.00 | 0.00 | 0.00 | 77 | 1002.7 |
| 20260507071825 | 7 | 138 | 0.0 | 1.6 | 0.00 | 0.00 | 0.00 | 77 | 1002.4 |
| 20260507070326 | 6 | 137 | 3.2 | 4.8 | 0.00 | 0.00 | 0.00 | 78 | 1002.4 |
| 20260507064827 | 6 | 102 | 8.0 | 12.9 | 0.00 | 0.00 | 0.00 | 78 | 1002.4 |
| 20260507063326 | 6 | 146 | 1.6 | 1.6 | 0.00 | 0.00 | 0.00 | 79 | 1002.4 |
| 20260507061826 | 6 | 120 | 4.8 | 9.7 | 0.00 | 0.00 | 0.00 | 79 | 1002.4 |
| 20260507060325 | 5 | 107 | 6.4 | 11.3 | 0.00 | 0.00 | 0.00 | 81 | 1002.4 |
| 20260507054825 | 5 | 111 | 3.2 | 3.2 | 0.00 | 0.00 | 0.00 | 83 | 1002.0 |
| 20260507053324 | 5 | 159 | 3.2 | 4.8 | 0.00 | 0.00 | 0.00 | 83 | 1002.0 |
| 20260507051825 | 5 | 153 | 3.2 | 4.8 | 0.00 | 0.00 | 0.00 | 82 | 1002.0 |
| 20260507050325 | 5 | 112 | 3.2 | 6.4 | 0.00 | 0.00 | 0.00 | 83 | 1002.0 |
| 20260507044825 | 5 | 103 | 3.2 | 3.2 | 0.00 | 0.00 | 0.00 | 83 | 1002.0 |
| 20260507043325 | 5 | 134 | 1.6 | 3.2 | 0.00 | 0.00 | 0.00 | 83 | 1002.4 |
| 20260507041826 | 5 | 94 | 6.4 | 9.7 | 0.00 | 0.00 | 0.00 | 83 | 1002.0 |
| 20260507040325 | 5 | 142 | 4.8 | 9.7 | 0.00 | 0.00 | 0.00 | 83 | 1002.0 |
| 20260507034824 | 5 | 113 | 3.2 | 4.8 | 0.00 | 0.00 | 0.00 | 83 | 1002.0 |
| 20260507033325 | 5 | 85 | 1.6 | 3.2 | 0.00 | 0.00 | 0.00 | 83 | 1002.0 |
| 20260507031824 | 5 | 85 | 3.2 | 4.8 | 0.00 | 0.00 | 0.00 | 84 | 1002.0 |
| 20260507030326 | 5 | 143 | 3.2 | 3.2 | 0.00 | 0.00 | 0.00 | 84 | 1002.0 |
| 20260507024825 | 5 | 124 | 3.2 | 3.2 | 0.00 | 0.00 | 0.00 | 84 | 1002.4 |
| 20260507023325 | 5 | 95 | 3.2 | 4.8 | 0.00 | 0.00 | 0.00 | 84 | 1002.4 |
| 20260507021825 | 5 | 142 | 4.8 | 6.4 | 0.00 | 0.00 | 0.00 | 85 | 1002.4 |
| 20260507020326 | 5 | 137 | 4.8 | 9.7 | 0.00 | 0.00 | 0.00 | 85 | 1002.4 |
| 20260507014826 | 4 | 78 | 3.2 | 6.4 | 0.00 | 0.00 | 0.00 | 86 | 1002.4 |
| 20260507013325 | 4 | 119 | 1.6 | 3.2 | 0.00 | 0.00 | 0.00 | 86 | 1002.4 |
| 20260507011825 | 4 | 106 | 1.6 | 4.8 | 0.00 | 0.00 | 0.00 | 85 | 1002.4 |
| 20260507010326 | 4 | 135 | 1.6 | 4.8 | 0.00 | 0.00 | 0.00 | 85 | 1002.4 |
| 20260507004825 | 4 | 101 | 4.8 | 6.4 | 0.00 | 0.00 | 0.00 | 85 | 1002.4 |
| 20260507003325 | 4 | 130 | 0.0 | 0.0 | 0.00 | 0.00 | 0.00 | 85 | 1002.7 |
| 20260507001825 | 4 | 110 | 6.4 | 9.7 | 0.00 | 0.00 | 0.00 | 85 | 1002.7 |
| 20260507000328 | 3 | 121 | 1.6 | 1.6 | 0.00 | 0.00 | 0.00 | 85 | 1002.7 |
| 20260506234825 | 4 | 172 | 3.2 | 3.2 | 0.00 | 0.00 | 0.00 | 84 | 1002.7 |
| 20260506233325 | 3 | 83 | 8.0 | 11.3 | 0.00 | 0.00 | 0.00 | 84 | 1002.7 |
| 20260506231826 | 3 | 119 | 1.6 | 3.2 | 0.00 | 0.00 | 0.00 | 85 | 1002.7 |
| 20260506230325 | 3 | 113 | 1.6 | 3.2 | 0.00 | 0.00 | 0.00 | 84 | 1002.7 |
| 20260506224825 | 4 | 130 | 3.2 | 4.8 | 0.00 | 0.00 | 0.00 | 83 | 1002.7 |
| 20260506223325 | 4 | 149 | 1.6 | 3.2 | 0.00 | 0.00 | 0.00 | 82 | 1002.7 |
| 20260506221825 | 4 | 154 | 6.4 | 9.7 | 0.00 | 0.00 | 0.00 | 82 | 1002.7 |
| 20260506220325 | 4 | 94 | 3.2 | 4.8 | 0.00 | 0.00 | 0.00 | 83 | 1002.7 |
| 20260506214825 | 4 | 117 | 4.8 | 6.4 | 0.00 | 0.00 | 0.00 | 82 | 1002.7 |
| 20260506213325 | 4 | 120 | 3.2 | 4.8 | 0.00 | 0.00 | 0.00 | 80 | 1002.7 |
| 20260506211825 | 4 | 103 | 6.4 | 9.7 | 0.00 | 0.00 | 0.00 | 80 | 1002.7 |
| 20260506210326 | 5 | 121 | 3.2 | 3.2 | 0.00 | 0.00 | 0.00 | 78 | 1002.7 |
| 20260506204825 | 5 | 170 | 3.2 | 4.8 | 0.00 | 0.00 | 0.00 | 77 | 1002.4 |